Location: Waco, TX
(31.5480°N, 97.1670°W)
Time: 22:54:54
(UTC-05:00)

ISS - Pass Details

Date: 18 April 2018
Orbit: 403 x 406 km, 51.6° (Epoch: 23 April)

Event Time Altitude Azimuth Distance (km) Brightness Sun altitude
Rises 17:23:40 0° 331° (NNW) 2,325 0.3 32.1°
Reaches altitude 10° 17:26:23 10° 356° (N) 1,463 -0.9 31.6°
Maximum altitude 17:28:26 15° 34° (NE) 1,178 -1.7 31.1°
Drops below altitude 10° 17:30:29 10° 73° (ENE) 1,461 -1.4 30.7°
Sets 17:33:11 0° 97° (E) 2,318 -0.5 30.1°
